Hourly Data Report for October 10, 2015

All times are specified in Local Standard Time (LST). Add 1 hour to adjust for Daylight Saving Time where and when it is observed.

CAPE DORSET A
NUNAVUT

64°13'49.000" N
76°31'30.000" W
48.20 m
2400637
71366
YTE

Download Data

Hourly Data (October 2015)
Hourly Data Report for October 10, 2015
Temp Definition
°C
Dew Point Temp Definition
°C
Rel Hum Definition
%
Wind Dir Definition
10's deg

Wind Spd Definition
km/h
Visibility Definition
km
Stn Press Definition
kPa
Hmdx Definition


Wind Chill Definition


Weather Definition


TIME
00:00 Legend Double Dagger -4.5 -6.3 87 36 18 16.1 99.22   -11 Snow
01:00 Legend Double Dagger -3.9 -6.2 84 1 22 16.1 99.18   -10 Snow
02:00 Legend Double Dagger -3.7 -5.3 88 2 26 16.1 99.17   -11 Snow
03:00 Legend Double Dagger -3.6 -5.3 88 1 24 16.1 99.18   -10 Snow
04:00 Legend Double Dagger -3.6 -5.3 88 2 24 16.1 99.14   -10 Snow
05:00 Legend Double Dagger -3.8 -5.6 87 1 26 16.1 99.15   -11 LegendNANA
06:00 Legend Double Dagger -4.0 -6.1 86 35 26 16.1 99.15   -11 LegendNANA
07:00 Legend Double Dagger -4.5 -6.8 84 32 22 16.1 99.18   -11 LegendNANA
08:00 Legend Double Dagger -4.2 -6.4 85 32 15 16.1 99.15   -10 LegendNANA
09:00 Legend Double Dagger -3.3 -5.6 84 34 11 16.1 99.15   -8 Snow
10:00 Legend Double Dagger -3.3 -5.6 84 32 15 16.1 99.13   -8 LegendNANA
11:00 Legend Double Dagger -2.9 -5.1 85 34 21 16.1 99.12   -9 Snow
12:00 Legend Double Dagger -2.6 -4.6 86 33 15 16.1 99.10   -8 Snow
13:00 Legend Double Dagger -2.0 -4.3 84 32 13 16.1 99.10   -6 Snow
14:00 Legend Double Dagger -1.8 -4.3 83 34 17 16.1 99.11   -7 Snow
15:00 Legend Double Dagger -1.8 -3.7 87 34 17 12.9 99.14   -7 Snow
16:00 Legend Double Dagger -1.9 -3.5 89 33 18 12.9 99.14   -7 Snow
17:00 Legend Double Dagger -1.9 -3.6 88 33 15 16.1 99.15   -7 Snow
18:00 Legend Double Dagger -1.9 -3.3 90 31 15 9.7 99.16   -7 Snow
19:00 Legend Double Dagger -1.7 -3.7 86 31 11 16.1 99.17   -6 Snow
20:00 Legend Double Dagger -1.8 -2.9 92 28 11 16.1 99.18   -6 Snow
21:00 Legend Double Dagger -1.7 -3.5 87 31 15 16.1 99.17   -7 Snow
22:00 Legend Double Dagger -1.7 -3.6 87 31 11 16.1 99.17   -6 LegendNANA
23:00 Legend Double Dagger -1.7 -3.3 89 35 8 16.1 99.21   -5 Snow

Notes on Data Quality.

Legend

  • E = Estimated
  • M = Missing
  • NA = Not Available
  • ‡ = Partner data that is not subject to review by the National Climate Archives
Date modified: